Volver al catálogo

CZ-6A DEB

ActivoPO
NORAD 61414·DEBRIS·🇨🇳 China

Lanzado Aug 6, 2024 desde Taiyuan Satellite Launch Center

Loading…

Próximos Pases (próximas 24 horas)

TLE

ActualizadoSource: Space-Track

Época: Sep 14, 2026, 10:59 UTC

1 61414U 24140YF  26257.45832919  .00001619  00000-0  35970-3 0  9994
2 61414  88.9799 258.3281 0085730 317.3573  42.1002 14.54328426106723

Sigue CZ-6A DEB en tiempo real con AllMySat

Download on the App Store